Regional Weather Roundup
Issued by NWS

Home | Current Version | Previous Version | Graphics & Text | Print | Product List | Glossary On
Versions: 1 2 3 4 5 6 7 8 9 10 11 12 13 14 15 16 17 18 19 20 21 22 23 24 25 26 27 28 29 30 31 32 33 34 35 36 37 38 39 40 41 42 43 44 45 46 47 48 49 50
000
ASUS43 KLSX 031210
RWRMO

WEATHER SUMMARY FOR MISSOURI
NATIONAL WEATHER SERVICE SPRINGFIELD MO
700 AM CDT TUE MAY 03 2016

NOTE: "FAIR" INDICATES FEW OR NO CLOUDS BELOW 12,000 FEET WITH NO
       SIGNIFICANT WEATHER AND/OR OBSTRUCTIONS TO VISIBILITY.
       CURRENT SKY AND/OR WEATHER CONDITIONS ARE NOT AVAILABLE FOR
       CHILLICOTHE AND FARMINGTON.

MOZ001>031-035>038-043-044-053-054-031300-
...NORTHERN AND WESTERN MISSOURI...

CITY           SKY/WX    TMP DP  RH WIND       PRES   REMARKS
KANSAS CTY INT PTCLDY    45  43  93 W3        30.06S
6HR MIN TEMP:  41; 6HR MAX TEMP:  49;

KANSAS C DTWN  CLEAR     43  42  97 SW3       30.07R
6HR MIN TEMP:  43; 6HR MAX TEMP:  48;

LEE`S SUMMIT     N/A     44  44 100 SW3       30.07R
6HR MIN TEMP:  43; 6HR MAX TEMP:  47;

ST JOSEPH      FOG       42  41  96 CALM      30.07S VSB<1/4
6HR MIN TEMP:  40; 6HR MAX TEMP:  47;

CHILLICOTHE      N/A     40  40 100 CALM      30.08R
6HR MIN TEMP:  38; 6HR MAX TEMP:  43;

KIRKSVILLE     MOCLDY    43  42  97 NW5       30.06R
6HR MIN TEMP:  38; 6HR MAX TEMP:  43;


$$
MOZ066>068-077>081-088>096-101>105-031300-
...SOUTHWEST MISSOURI...

CITY           SKY/WX    TMP DP  RH WIND       PRES   REMARKS
SPRINGFIELD    FOG       42  41  96 CALM      30.07R VSB<1/4
6HR MIN TEMP:  42; 6HR MAX TEMP:  47;

JOPLIN         FOG       41  40  96 CALM      30.09R VSB<1/4
6HR MIN TEMP:  39; 6HR MAX TEMP:  46;

BRANSON        MOCLDY    46  46 100 CALM      30.08R

$$
MOZ032>034-039>042-045>050-055>058-069>072-031300-
...CENTRAL MISSOURI...

CITY           SKY/WX    TMP DP  RH WIND       PRES   REMARKS
COLUMBIA       FOG       43  43 100 NW3       30.05S VSB<1/4
6HR MIN TEMP:  42; 6HR MAX TEMP:  43;

JEFFERSON CITY FOG       45  45 100 W3        30.07R VSB<1/4
6HR MIN TEMP:  45; 6HR MAX TEMP:  47;

ROLLA          CLOUDY    47  46  97 NW6       30.04R FOG
6HR MIN TEMP:  46; 6HR MAX TEMP:  49;

SEDALIA        CLEAR     46  44  93 W6        30.07R FOG
6HR MIN TEMP:  45; 6HR MAX TEMP:  47;

WHITEMAN AFB   PTCLDY    42  42 100 SW3       30.06S
WARRENSBURG      N/A     37  37 100 SE3       30.07S FOG
OSAGE BEACH    CLOUDY    46  39  76 S3        30.07R VSB<1/4

$$
MOZ051-052-059>065-031300-
...EAST CENTRAL MISSOURI...

CITY           SKY/WX    TMP DP  RH WIND       PRES   REMARKS
ST LOUIS INTL  PTSUNNY   53  49  86 W6        30.03R
6HR MIN TEMP:  52; 6HR MAX TEMP:  54;

SPIRIT OF STL  CLOUDY    51  49  92 CALM      30.03R
6HR MIN TEMP:  50; 6HR MAX TEMP:  52; 6HR PCP: TRACE;

ST CHARLES     MOSUNNY   51  49  92 NW5       30.02R
6HR MIN TEMP:  51; 6HR MAX TEMP:  53;


$$
MOZ072>076-082>087-097>100-106>115-031300-
...SOUTH CENTRAL AND SOUTHEAST MISSOURI...

CITY           SKY/WX    TMP DP  RH WIND       PRES   REMARKS
CAPE GIRARDEAU CLOUDY    53  49  86 NW7       30.01R
6HR MIN TEMP:  53; 6HR MAX TEMP:  55;

FARMINGTON     CLOUDY    51  48  89 NW5       30.03R
6HR MIN TEMP:  50; 6HR MAX TEMP:  52;

POPLAR BLUFF   MOCLDY    53  48  83 N9        30.02R
6HR MIN TEMP:  53; 6HR MAX TEMP:  56;

WEST PLAINS    CLOUDY    50  45  83 N5        30.05R
6HR MIN TEMP:  47; 6HR MAX TEMP:  51;


$$



USA.gov is the U.S. government's official web portal to all federal, state and local government web resources and services.